STARLINK-31033 (58723 NORAD) Tracking and Keplerian Element Data

This shows tracking and keplerian element data for the satellite.

Feedback or suggestion? Click here.




ElementValue
Catalog58723
NameSTARLINK-31033
Epoch Orbit265
Epoch Day13.25002315
Epoch Year2024
RAAN198.5178
Inclination53.167
Eccentricity6.62E-05
Argument of Perigee93.7661
Mean Anonmoly277.5512
Mean Motion15.58012305
Decay Rate-0.0174841
L11 58723U 24002U 24013.25002315 -.01748410 00000+0 -25656-1 0 9992
L22 58723 53.1670 198.5178 0000662 93.7661 277.5512 15.58012305 2656



Live tracking and technical data element details for STARLINK-31033 (NORAD 58723). STARLINK-31033 can be tracked NOW for your location showing map with azimuth and elevation plus other details from your city location.







IsCatalogInMostPopularTable: catalog: 58723, numindb: 25
Update: records affected: 1



GetName: 58723 STARLINK-31033

Hit Count: updated at: Wed, 17 Apr 2024 03:37:25 GMT